Tracking 35331 objects as of 14-Sep-2026
HD Live streaming from Space Station
objects crossing your sky now

OBJECT W

Track OBJECT W now!
10-day predictions


NORAD ID: 56866
Int'l Code: 2023-081W
Launch date: June 7, 2023
Source: (TBD)
Launch site: Jiuquan Satellite Launch Center, China (JSC)
Your satellite tracking list
Your tracking list is empty




NASA's NSSDC Master Catalog

Two Line Element Set (TLE):
1 56866U 23081W   26257.61618415  .00005416  00000-0  21412-3 0  9998
2 56866  97.2805 318.8204 0011836  61.3154 298.9273 15.25830028181665
Source of the keplerian elements: AFSPC